Edna St. Vincent Millay

(22 February 1892 – 19 October 1950 / Rockland / Maine / United States)

Stats

» Click to list general statistics » OR, select a date :

General Statistics

Visitors of the poet

Number of visitors of the poet’s mainpage in PoemHunter.Com

Attention : Numbers in this table does not indicate the total hits of poems of the poet, but indicates the hits of the poet’s main page.

Date Hits
05/21/2015 Thursday 674
49%
05/20/2015 Wednesday 727
52%
05/19/2015 Tuesday 839
61%
05/18/2015 Monday 889
64%
05/17/2015 Sunday 630
45%
05/16/2015 Saturday 539
39%
05/15/2015 Friday 887
64%
05/14/2015 Thursday 713
51%
05/13/2015 Wednesday 697
50%
05/12/2015 Tuesday 794
57%
05/11/2015 Monday 924
67%
05/10/2015 Sunday 969
70%
05/09/2015 Saturday 420
30%
05/08/2015 Friday 655
47%
05/07/2015 Thursday 1083
78%
05/06/2015 Wednesday 1009
73%
05/05/2015 Tuesday 1145
83%
05/04/2015 Monday 1373
100%
05/03/2015 Sunday 1327
96%
05/02/2015 Saturday 896
65%

Reader rating & num.of MyPoemList’s

Click the captions of columns to change the order.

# Poem Title Submit Date Reader Rating Num.of MyPoemList’s
Rating Num.R.
1 [four Sonnets (1922)] 01/01/2004 5.2 106 30
2 A Visit To The Asylum 01/13/2003 6.0 99 59
3 Afternoon On A Hill 01/04/2003 6.6 118 75
4 Alms 01/13/2003 5.7 92 26
5 An Ancient Gesture 01/13/2003 6.0 107 49
6 And Do You Think That Love Itself 01/13/2003 6.1 114 63
7 And You As Well Must Die, Belovèd Dust 01/01/2004 6.0 77 53
8 Apostrophe To Man 01/13/2003 5.8 118 32
9 Ashes Of Life 01/13/2003 6.0 87 67
10 Assault 01/13/2003 5.6 123 20
11 Autumn Daybreak 01/13/2003 5.6 130 43
12 Being Young And Green 01/13/2003 5.5 84 33
13 Blight 01/13/2003 5.9 96 22
14 Bluebeard 01/01/2004 5.5 80 43
15 Burial 01/13/2003 5.3 89 30
16 Childhood Is The Kingdom Where Nobody Dies 11/28/2014 -- 0 0
17 Chorus 01/13/2003 5.8 82 22
18 City Trees 01/13/2003 5.8 134 58
19 Conscientious Objector 01/13/2003 5.5 180 73
20 Counting-Out Rhyme 01/01/2004 6.1 98 22
21 Daphne 01/13/2003 5.7 93 33
22 Departure 01/13/2003 5.5 88 40
23 Dirge 01/13/2003 5.6 68 11
24 Dirge Without Music 01/13/2003 6.5 101 66
25 Doubt No More That Oberon 01/13/2003 5.6 66 12
26 Ebb 01/13/2003 5.5 81 25
27 Eel-Grass 01/13/2003 6.0 33 10
28 Elegy 01/13/2003 5.3 42 8
29 Elegy Before Death 01/13/2003 6.1 31 14
30 Epitaph 01/13/2003 6.1 38 17
31 Euclid Alone 01/01/2004 5.7 46 16
32 Exiled 01/13/2003 6.5 44 21
33 Feast 01/13/2003 6.0 50 14
34 First Fig 01/13/2003 7.5 74 92
35 Fontaine, Je Ne Boirai Pas De Ton Eau! 01/13/2003 5.5 31 8
36 God's World 01/04/2003 6.1 69 38
37 Grown-Up 01/01/2004 6.2 25 31
38 Here Is A Wound That Never Will Heal, I Know 01/13/2003 6.0 56 57
39 Humoresque 01/01/2004 5.6 30 16
40 I Do But Ask That You Be Always Fair 01/01/2004 5.5 42 29
41 I Dreamed I Moved Among The Elysian Fields 01/13/2003 5.9 68 25
42 I Know 100 Ways To Die 07/07/2003 7.8 4 28
43 I Know I Am But Summer To Your Heart 01/13/2003 6.5 40 47
44 I Know The Face Of Falsehood And Her Tongue 01/13/2003 5.6 44 7
45 I Shall Go Back 01/01/2004 5.5 39 25
46 I, Being Born A Woman And Distressed 01/01/2004 6.7 33 54
47 If I Should Learn, In Some Quite Casual Way 01/01/2004 6.4 40 36
48 If Still Your Orchards Bear 01/13/2003 5.8 32 7
49 Indifference 01/13/2003 5.8 33 11
50 Inland 01/13/2003 5.5 36 7
51 Intention To Escape From Him 01/13/2003 6.3 34 21
52 Interim 01/13/2003 6.1 36 14
53 Invocation To The Muses 01/13/2003 5.6 36 4
54 Journey 01/13/2003 6.2 26 17
55 Justice Denied In Massachusetts 01/13/2003 5.9 34 8
56 Kin To Sorrow 01/13/2003 5.5 34 20
57 Lament 01/13/2003 6.4 39 25
58 Lines For A Grave-Stone 01/01/2004 6.1 37 7
59 Lines Written In Recapitulation 01/13/2003 6.2 49 4
60 Love Is Not All 01/13/2003 7.5 80 175
61 Low-Tide 01/13/2003 4.8 45 14
62 Make Bright The Arrows 01/13/2003 5.7 38 4
63 Mariposa 01/13/2003 6.6 50 12
64 Memorial To D.C. 01/13/2003 5.8 31 2
65 Menses 01/13/2003 5.5 32 6
66 Midnight Oil 01/13/2003 5.9 35 11
67 Mist In The Valley 01/13/2003 5.4 33 14
68 Modern Declaration 01/13/2003 5.6 34 9
69 My Most Distinguished Guest And Learned Friend 01/13/2003 5.4 35 9
70 Night Is My Sister, And How Deep In Love 01/13/2003 5.7 35 26
71 No Rose That In A Garden Ever Grew 01/01/2004 5.5 36 12
72 Not Even My Pride Shall Suffer Much 01/13/2003 5.7 37 9
73 Not In A Silver Casket Cool With Pearls 01/13/2003 5.9 38 20
74 Ode To Silence 01/13/2003 5.9 33 15
75 Oh, My Belovèd, Have You Thought Of This 01/01/2004 6.0 36 12
76 Oh, Oh, You Will Be Sorry 01/13/2003 6.4 38 33
77 Only Until This Cigarette Is Ended 01/01/2004 5.5 36 44
78 Passer Mortuus Est 01/13/2003 5.8 46 10
79 Pastoral 01/13/2003 5.1 35 5
80 Pity Me Not Because The Light Of Day 01/13/2003 6.3 38 32
81 Portrait By A Neighbour 01/13/2003 5.9 35 8
82 Prayer To Persephone 01/13/2003 5.5 33 18
83 Recuerdo 01/01/2004 6.5 43 19
84 Renascence 01/04/2003 7.0 31 61
85 Rosemary 01/13/2003 5.5 44 6
86 Scrub 01/13/2003 5.7 42 4
87 Second Fig 01/13/2003 6.0 47 27
88 Song Of A Second April 01/13/2003 5.9 46 8
89 Sonnet (Women Have Loved Before As I Love Now) 01/13/2003 5.9 44 18
90 Sonnet 01: Thou Art Not Lovelier Than Lilacs,&Mdash;No 01/13/2003 5.7 44 15
91 Sonnet 02: Time Does Not Bring Relief; You All Have Lied 01/13/2003 6.5 66 65
92 Sonnet 03: Mindful Of You The Sodden Earth In Spring 01/13/2003 5.4 42 5
93 Sonnet 04: Not In This Chamber Only At My Birth 01/13/2003 5.5 43 4
94 Sonnet 05: If I Should Learn, In Some Quite Casual Way 01/13/2003 5.9 48 18
95 Sonnet 06: Bluebeard 01/13/2003 6.1 49 7
96 Sonnet I: Thou Art Not Lovelier Than Lilacs 01/01/2004 5.6 43 10
97 Sonnet Ii: Time Does Not Bring Relief 01/01/2004 6.0 47 25
98 Sonnet Iii: Mindful Of You The Sodden Earth 01/01/2004 5.6 42 5
99 Sonnet Iv: Not In This Chamber 01/01/2004 5.5 42 3
100 Sonnet V: If I Should Learn 01/01/2004 5.3 48 4
101 Sonnet Vi: This Door You Might Not Open 01/01/2004 5.9 49 12
102 Sonnets (1923) 01/01/2004 5.3 49 6
103 Sonnets 01: We Talk Of Taxes, And I Call You Friend 01/13/2003 5.4 48 9
104 Sonnets 02: Into The Golden Vessel Of Great Song 01/13/2003 5.3 55 3
105 Sonnets 03: Not With Libations, But With Shouts And Laughter 01/13/2003 5.8 56 6
106 Sonnets 04: Only Until This Cigarette Is Ended 01/13/2003 5.8 34 11
107 Sonnets 05: Once More Into My Arid Days Like Dew 01/13/2003 5.7 32 8
108 Sonnets 06: No Rose That In A Garden Ever Grew 01/13/2003 5.6 42 7
109 Sonnets 07: When I Too Long Have Looked Upon Your Face 01/13/2003 5.9 44 22
110 Sonnets 08: And You As Well Must Die, Beloved Dust 01/13/2003 5.5 50 6
111 Sonnets 09: Let You Not Say Of Me When I Am Old 01/13/2003 5.6 51 9
112 Sonnets 10: Oh, My Beloved, Have You Thought Of This 01/13/2003 5.8 44 6
113 Sonnets 11: As To Some Lovely Temple, Tenantless 01/13/2003 5.7 44 3
114 Sonnets 12: Cherish You Then The Hope I Shall Forget 01/13/2003 5.5 61 3
115 Sonnets From An Ungrafted Tree 01/13/2003 5.7 46 4
116 Sorrow 01/13/2003 5.7 53 26
117 Souvenir 01/13/2003 5.6 46 11
118 Spring 01/13/2003 6.1 45 21
119 Sweet Love, Sweet Thorn, When Lightly To My Heart 01/13/2003 5.6 45 16
120 Tavern 01/13/2003 5.6 48 7
121 The Ballad Of The Harp-Weaver 01/13/2003 5.9 61 27
122 The Bean-Stalk 01/13/2003 5.6 58 5
123 The Betrothal 01/01/2004 5.6 37 13
124 The Blue Flag In The Bog 01/01/2004 5.9 34 4
125 The Blue-Flag In The Bog 01/13/2003 5.3 62 2
126 The Concert 01/13/2003 5.5 71 7
127 The Courage That My Mother Had 01/03/2015 -- 0 1
128 The Curse 01/13/2003 5.9 68 12
129 The Death Of Autumn 01/13/2003 5.9 59 10
130 The Dream 01/13/2003 5.8 62 26
131 The Fawn 01/13/2003 5.8 66 5
132 The Fledgling 01/13/2003 5.4 49 2
133 The Goose-Girl 01/13/2003 5.8 69 9
134 The Leaf And The Tree 01/13/2003 5.8 59 15
135 The Little Ghost 01/13/2003 6.1 38 16
136 The Little Hill 01/13/2003 5.8 54 7
137 The Penitent 01/13/2003 5.6 30 10
138 The Philosopher 01/13/2003 5.6 44 22
139 The Plaid Dress 01/13/2003 5.8 46 10
140 The Poet And His Book 01/13/2003 6.2 40 10
141 The Return From Town 01/13/2003 5.5 47 6
142 The Shroud 01/13/2003 5.5 57 4
143 The Singing-Woman From The Wood's Edge 01/13/2003 5.9 45 7
144 The Snow Storm 01/13/2003 5.8 75 7
145 The Spring And The Fall 01/13/2003 8.0 111 66
146 The Suicide 01/13/2003 5.5 58 18
147 The True Encounter 01/13/2003 5.9 54 6
148 The Unexplorer 01/13/2003 6.0 49 8
149 The Wood Road 01/13/2003 5.8 44 5
150 Think Not, Not For A Moment Let Your Mind 01/13/2003 5.7 54 14
151 Three Songs Of Shattering 01/13/2003 5.9 38 7
152 Thursday 01/01/2004 5.3 76 11
153 To A Poet That Died Young 01/13/2003 5.8 43 7
154 To A Young Poet 01/01/2004 5.9 61 9
155 To Kathleen 01/01/2004 5.5 57 4
156 To The Not Impossible Him 01/13/2003 5.3 52 14
157 To Those Without Pity 01/13/2003 5.1 39 10
158 Travel 01/13/2003 6.0 41 16
159 Two Sonnets In Memory 01/13/2003 5.9 31 5
160 Underground System 01/13/2003 5.8 34 3
161 We Talk Of Taxes... 01/01/2004 6.2 28 4
162 Weeds 01/13/2003 8.0 1 8
163 What Lips My Lips Have Kissed, And Where, And Why (Sonnet Xliii) 01/13/2003 7.9 123 374
164 When I Too Long Have Looked Upon Your Face 01/01/2004 6.2 36 30
165 When The Year Grows Old 01/04/2003 5.7 38 16
166 When We Are Old And These Rejoicing Veins 01/13/2003 5.7 35 14
167 Whereas At Morning In A Jeweled Crown 01/13/2003 5.4 42 6
168 Wild Swans 01/13/2003 5.9 32 14
169 Witch-Wife 01/13/2003 5.4 39 23
170 Wraith 01/13/2003 5.6 29 12
[Hata Bildir]